ISS

operational
NORAD ID: 25544 Int'l Des: 1998-067 Owner: JSC Country: US
LEOCIRCULAR

ISSについて

説明を読み込み中...

リアルタイム位置

3D地球を読み込み中...

次回通過

高度履歴

Altitude vs Time

uPlot chart will show altitude changes over time

軌道要素

1 25544U 98067A 25251.48563018 .00010058 00000-0 18276-3 0 9991
2 25544 51.6324 254.2080 0004252 315.3210 44.7436 15.50188612528080
Epoch: Sep 8, 2025 • Age: 16 hours

現在のステータス

高度 423.5 km
速度 7.66 km/s
衛星直下点 46.21°N, 26.94°W
打ち上げ日 Nov 20, 1998
運用期間 26.8 years
タイプ communications

技術仕様

分類 Payload
質量 20281.00 kg
乾燥質量 19000.00 kg
総質量 20351.00 kg
長さ 12.60 m
直径 4.20 m
スパン 23.90 m
形状 Cyl + 2 Pan
製造者 KHRR
バスタイプ 77KS
フェーズステータス Grappled
所有者/国 JSC/US

大規模コンステレーション

Loading constellations...